Location: Alpine
(43.1636°N, 111.0180°W)
Time: 05:09:00
(UTC+00:00)

Tiros 1 despin weight - Pass Details

Date: 05 June 2022
Orbit: 591 x 639 km, 48.2° (Epoch: 30 June)

Event Time Altitude Azimuth Distance (km) Brightness Sun altitude
Rises 00:34:32 0° 280° (W) 2,897 ? 23.7°
Reaches altitude 10° 00:36:57 10° 287° (WNW) 1,982 ? 23.3°
Maximum altitude 00:41:19 43° 0° (N) 861 ? 22.5°
Drops below altitude 10° 00:45:36 10° 73° (ENE) 1,952 ? 21.7°
Sets 00:47:58 0° 80° (E) 2,847 ? 21.3°
